Tracking 20942 objects as of 11-Jul-2020
HD Live streaming from Space Station
objects crossing your sky now

IRIDIUM 91 DEB


IRIDIUM 91 DEB is no longer on orbit


NORAD ID: 40325
Int'l Code: 2002-005H
Perigee: N/A
Apogee: N/A
Inclination: N/A
Period: N/A
Semi major axis: N/A
RCS: N/A
Launch date: February 11, 2002
Source: United States (US)
Launch site: AIR FORCE WESTERN TEST RANGE (AFWTR)
Decay date: 2015-03-22

Note: This is SATELLITE DEBRIS
aabbcc
Your satellite tracking list
Your tracking list is empty




NASA's NSSDC Master Catalog

Two Line Element Set (TLE):
1 40325U 02005H   15080.94901671  .16617495  00000-0  96205-1 0  9994
2 40325 086.4086 266.5886 0037141 025.3510 336.9927 15.71773587 16200
Source of the keplerian elements: AFSPC